Flag for U.S.A. Weather past 2 weeks in Hopkinsville, Kentucky, U.S.A.

Now
67 °F

Clear.


Feels Like: 67 °F
Forecast: 66 / 92 °F
Wind: No wind

Location: Fort Campbell U. S. Army Airfield

Current Time: Jul 26, 2014 at 2:50:18 AM

Latest Report: Jul 26, 2014 at 1:58 AM


Visibility: 10 mi

Pressure: 30.00 "Hg

Humidity: 94%

Dew point: 65 °F

Location of HopkinsvilleLocation

Historic Weather in Hopkinsville — Graph

°F

Hopkinsville temperature yesterday

Maximum temperature yesterday: 84 °F (at 4:58 PM)
Minimum temperature yesterday: 57 °F (at 5:58 AM)
Average temperature yesterday: 72 °F

Past Weeks' High & Low Weather Summary

 TemperatureHumidityPressure
High94 °F (Jul 13, 3:58 PM)100% (Jul 11, 3:58 AM)30.18 "Hg (Jul 11, 3:58 AM)
Low54 °F (Jul 17, 5:58 AM)33% (Jul 17, 1:58 PM)29.85 "Hg (Jul 14, 2:58 PM)
Average74 °F75%30.03 "Hg
* Reported Jul 11 12:58 AM — Jul 26 12:58 AM, Hopkinsville, Weather by CustomWeather, © 2014

Note: Actual official high and low records may vary slightly from our data, if they occured in-between our weather recording intervals... More about our weather records

Advertising

Hopkinsville weather history for previous 24 hours

 ConditionsComfort  
Time TempWeatherWind HumidityBarometerVisibility
12:58 AM
Jul 26
69 °FClear.2 mph85%30.00 "Hg10 mi
11:58 PM
Jul 25
70 °FClear.2 mph81%30.00 "Hg10 mi
10:58 PM70 °FClear.No wind81%29.99 "Hg10 mi
9:58 PM74 °FClear.3 mph70%29.99 "Hg10 mi
8:58 PM74 °FScattered clouds.5 mph70%29.96 "Hg10 mi
7:58 PM78 °FScattered clouds.6 mph58%29.93 "Hg10 mi
6:58 PM80 °FScattered clouds.5 mph51%29.91 "Hg10 mi
5:58 PM81 °FPassing clouds.2 mph44%29.97 "Hg10 mi
4:58 PM84 °FSunny.8 mph39%30.03 "Hg10 mi
3:58 PM84 °FPassing clouds.3 mph40%30.03 "Hg10 mi
2:58 PM84 °FSunny.2 mph38%30.01 "Hg10 mi
1:58 PM83 °FSunny.1 mph39%30.03 "Hg10 mi
12:58 PM81 °FSunny.6 mph43%30.03 "Hg10 mi
11:58 AM80 °FSunny.5 mph44%30.06 "Hg10 mi
10:58 AM78 °FSunny.1 mph47%30.07 "Hg10 mi
9:58 AM76 °FSunny.3 mph56%30.07 "Hg10 mi
8:58 AM70 °FSunny.1 mph70%30.09 "Hg10 mi
7:58 AM68 °FSunny.7 mph72%30.07 "Hg10 mi
6:58 AM60 °FSunny.3 mph98%30.05 "Hg10 mi
5:58 AM57 °FClear.2 mph100%30.06 "Hg10 mi
4:58 AM57 °FClear.2 mph99%30.05 "Hg10 mi
3:58 AM58 °FClear.6 mph89%30.05 "Hg10 mi
2:58 AM59 °FClear.5 mph90%30.02 "Hg10 mi
Weather by CustomWeather, © 2014

See weather overviewHow to use our weather pages